Showing default

FLOCK 4BE 6, 60516

Orbit data source: Space-Track

FLOCK 4BE 6, 60516 is a payload satellite owned by Planet (US) in SSO that was launched on Fri, 16 Aug 2024 UTC via an FALCON 9 launch vehicle from the Air Force Western Test Range (AFWTR). Payload-class satellites include a variety of spacecraft equipped with specific instruments for various scientific and technological missions. These include communications satellites like Starlink; space stations such as the ISS; scientific satellites like the Hubble; Earth observation satellites from companies like Planet Labs, Umbra, and HawkEye 360; GPS; miniature CubeSats for education and research; and military/defense satellites.

Loading next visibility...
Identifier
60516, 2024-149BA
Orbit
SSO
Country
Flag of USUS
Related business
Manufacturer
Planet
Mission
Operational Commercial Imaging
Bus & Motor
CUBESAT 3U, Unknown motor
Mass
5.7 kg wet, 5.7 kg dry
Launch date (UTC)
2024-08-16 (2 years ago)
Launch vehicle
FALCON 9
Launch site
Air Force Western Test Range (AFWTR)
Object type
Payload
Rocket body
Debris
Shape & HBR
Box + 2 Pan, 1.0 m
Radar Cross Section
0.072 m², Medium (>0.1 m² and < 1m²)

Expand to show TLE details & history
Last TLE update: 7 hours ago

TLE from 7 hours ago
0 FLOCK 4BE 6
1 60516U 24149BA  26133.46493898  .00008112  00000-0  21494-3 0  9999
2 60516  97.3793 216.8510 0004712  77.6666 282.5107 15.38601570 96931
Epoch: 2026-05-13T11:09Z
TLE epoch observation values (Epoch: 2026-05-13T11:09:30.727Z)
Latitude
-0°
Longitude
178.24839°
Altitude
452.664 km
Speed
7.641 km/s
True Right ascension
14h 27m 24s
True Declination
0° 00' 00"
Sunlit
Object was in full shadow at epoch
Visualization orbit readout
Latitude
Unknown
Longitude
Unknown
Altitude
Unknown
Speed
Unknown
Apparent Right ascension
Unknown
Apparent Declination
Unknown
Sunlit
N/A
Visualization observer readout
Local Sidereal Time
02:59:15
Azimuth
Unknown
Elevation
Unknown
Doppler factor
Unknown
Orbital elements
Apogee altitude
450.4 km
Perigee altitude
443.968 km
Semi-major axis
6,825.321 km
Eccentricity
0.00047
Inclination
97.3793°
RAAN
216.851°
Arg. of periapsis
77.6666°
True anomaly
282.45798°
Mean anomaly
282.5107°
Eccentric anomaly
282.48434°
Mean motion
3.84909 °/min
Orbital period
93.53 mins
BSTAR
0.00021494
Loading maneuver chart data...
Computing Atmospheric mass density...
Loading historical data...
Loading historical data...
Loading historical data...
Loading historical data...
Loading historical data...
Loading historical data...
Loading historical data...

Documentation

Showing up to 5 results
|